Jacksonville, IL

9:22 AM CDT on October 22, 2017 (GMT -0500)
Jacksonville Municipal

Weather History for KIJX - July, 2013

Change the Weather History Date:

Thursday, July 18, 2013

  Actual Average (KSPI) Record (KSPI)
Temperature  
Mean Temperature 82 °F -  
Max Temperature 92 °F 88 °F 104 °F (1954)
Min Temperature 72 °F 67 °F 51 °F (1924)
Cooling Degree Days 17    
Growing Degree Days 32 (Base 50)    
Moisture  
Dew Point 71 °F    
Average Humidity 68    
Maximum Humidity 93    
Minimum Humidity 46    
Precipitation  
Precipitation 0.00 in - - ()
Sea Level Pressure  
Sea Level Pressure 30.14 in    
Wind  
Wind Speed 2 mph (SSW)    
Max Wind Speed 9 mph    
Max Gust Speed -    
Visibility 10 miles    
Events      
Averages and records for this station are not official NWS values.
T = Trace of Precipitation, MM = Missing Value Source: NWS Daily Summary

Daily Weather History Graph

Daily Weather History Graph

Search for Another Location

Airport or City:

Trip Planner

Search our weather history database for the weather conditions in past years. The results will help you decide how hot, cold, wet, or windy it might be!

Date:

Astronomy

Jul. 18, 2013 Rise Set
Actual Time 5:47 AM CDT 8:26 PM CDT
Civil Twilight 5:16 AM CDT 8:57 PM CDT
Nautical Twilight 4:37 AM CDT 9:36 PM CDT
Astronomical Twilight 3:53 AM CDT 10:20 PM CDT
Moon 4:23 PM CDT (7/18) 1:38 AM CDT (7/18)
Length of Visible Light 15h 40m
Length of Day
14h 38m
Waxing Gibbous, 77% of the Moon is Illuminated
Jul 18
Waxing Gibbous
Jul 22
Full
Jul 29
Last Quarter
Aug 6
New
Aug 14
First Quarter

Hourly Weather History & Observations

Time (CDT) Temp. Heat Index Dew Point Humidity Pressure Visibility Wind Dir Wind Speed Gust Speed Precip Events Conditions
12:15 AM 77.2 °F - 73.0 °F 87% 30.23 in 10.0 mi Calm Calm - N/A   Clear
12:35 AM 77.4 °F - 72.5 °F 85% 30.23 in 10.0 mi SW 4.6 mph - N/A   Clear
12:55 AM 77.2 °F - 72.7 °F 86% 30.23 in 10.0 mi Calm Calm - N/A   Clear
1:15 AM 77.0 °F - 72.7 °F 86% 30.23 in 10.0 mi Calm Calm - N/A   Clear
1:35 AM 77.0 °F - 72.5 °F 86% 30.23 in 10.0 mi SW 4.6 mph - N/A   Clear
1:55 AM 76.6 °F - 71.6 °F 84% 30.22 in 10.0 mi SW 4.6 mph - N/A   Clear
2:15 AM 76.5 °F - 71.6 °F 85% 30.21 in 10.0 mi Calm Calm - N/A   Clear
2:35 AM 75.2 °F - 71.4 °F 88% 30.21 in 10.0 mi Calm Calm - N/A   Clear
2:55 AM 76.3 °F - 72.1 °F 87% 30.21 in 10.0 mi Calm Calm - N/A   Clear
3:15 AM 74.5 °F - 71.1 °F 89% 30.20 in 10.0 mi Calm Calm - N/A   Clear
3:35 AM 73.4 °F - 70.7 °F 91% 30.20 in 10.0 mi Calm Calm - N/A   Clear
3:55 AM 74.3 °F - 71.6 °F 91% 30.20 in 10.0 mi Calm Calm - N/A   Clear
4:15 AM 73.2 °F - 70.3 °F 91% 30.19 in 10.0 mi Calm Calm - N/A   Clear
4:35 AM 73.4 °F - 70.9 °F 92% 30.20 in 10.0 mi Calm Calm - N/A   Clear
4:55 AM 73.4 °F - 70.7 °F 91% 30.20 in 10.0 mi Calm Calm - N/A   Clear
5:15 AM 72.7 °F - 70.3 °F 92% 30.20 in 10.0 mi Calm Calm - N/A   Clear
5:35 AM 72.0 °F - 69.8 °F 93% 30.20 in 10.0 mi Calm Calm - N/A   Clear
5:55 AM 72.5 °F - 70.0 °F 92% 30.20 in 10.0 mi Calm Calm - N/A   Clear
6:15 AM 72.5 °F - 70.0 °F 92% 30.20 in 10.0 mi Calm Calm - N/A   Clear
6:35 AM 73.4 °F - 71.2 °F 93% 30.20 in 7.0 mi Calm Calm - N/A   Clear
6:55 AM 75.2 °F - 72.5 °F 91% 30.20 in 10.0 mi Calm Calm - N/A   Clear
7:15 AM 77.5 °F - 73.6 °F 88% 30.20 in 10.0 mi Calm Calm - N/A   Clear
7:35 AM 79.9 °F - 72.5 °F 78% 30.20 in 10.0 mi Calm Calm - N/A   Clear
7:55 AM 81.5 °F 86.3 °F 72.5 °F 74% 30.20 in 10.0 mi Calm Calm - N/A   Clear
8:15 AM 82.8 °F 88.2 °F 72.5 °F 71% 30.20 in 10.0 mi Calm Calm - N/A   Clear
8:35 AM 83.3 °F 88.7 °F 72.3 °F 69% 30.20 in 10.0 mi Calm Calm - N/A   Clear
8:55 AM 84.6 °F 91.0 °F 72.9 °F 68% 30.20 in 10.0 mi Calm Calm - N/A   Clear
9:15 AM 84.9 °F 90.7 °F 72.0 °F 65% 30.20 in 10.0 mi WSW 3.5 mph - N/A   Clear
9:35 AM 86.0 °F 92.6 °F 72.5 °F 64% 30.20 in 10.0 mi WSW 4.6 mph - N/A   Clear
9:55 AM 86.5 °F 93.8 °F 73.0 °F 64% 30.19 in 10.0 mi SW 3.5 mph - N/A   Clear
10:15 AM 87.3 °F 94.0 °F 72.3 °F 61% 30.19 in 10.0 mi WSW 4.6 mph - N/A   Clear
10:35 AM 88.0 °F 94.2 °F 71.4 °F 58% 30.19 in 10.0 mi WSW 4.6 mph - N/A   Clear
10:55 AM 88.5 °F 94.9 °F 71.8 °F 57% 30.19 in 10.0 mi SW 4.6 mph - N/A   Clear
11:15 AM 89.1 °F 96.0 °F 72.0 °F 57% 30.18 in 10.0 mi WSW 4.6 mph - N/A   Clear
11:35 AM 88.3 °F 95.4 °F 72.3 °F 59% 30.18 in 10.0 mi WSW 4.6 mph - N/A   Clear
11:55 AM 89.1 °F 96.0 °F 72.0 °F 57% 30.18 in 10.0 mi SW 6.9 mph - N/A   Clear
12:15 PM 89.8 °F 97.0 °F 72.1 °F 56% 30.17 in 10.0 mi SSW 6.9 mph - N/A   Scattered Clouds
12:35 PM 89.6 °F 95.7 °F 70.7 °F 54% 30.17 in 10.0 mi SW 6.9 mph - N/A   Clear
12:55 PM 89.2 °F 94.9 °F 70.5 °F 54% 30.16 in 10.0 mi SSW 3.5 mph - N/A   Clear
1:15 PM 90.7 °F 96.9 °F 70.9 °F 52% 30.15 in 10.0 mi SW 4.6 mph - N/A   Scattered Clouds
1:35 PM 90.0 °F 95.4 °F 70.0 °F 52% 30.14 in 10.0 mi SE 3.5 mph - N/A   Scattered Clouds
1:55 PM 91.2 °F 96.5 °F 69.8 °F 49% 30.13 in 10.0 mi SSW 5.8 mph - N/A   Scattered Clouds
2:15 PM 91.4 °F 97.3 °F 70.3 °F 50% 30.12 in 10.0 mi SSW 5.8 mph - N/A   Scattered Clouds
2:35 PM 91.6 °F 96.7 °F 69.6 °F 48% 30.11 in 10.0 mi SSW 3.5 mph - N/A   Clear
2:55 PM 91.4 °F 97.3 °F 70.5 °F 50% 30.10 in 10.0 mi SSW 6.9 mph - N/A   Scattered Clouds
3:15 PM 92.1 °F 97.7 °F 70.0 °F 48% 30.10 in 10.0 mi SW 9.2 mph - N/A   Clear
3:35 PM 92.3 °F 98.6 °F 70.5 °F 49% 30.09 in 10.0 mi WSW 4.6 mph - N/A   Clear
3:55 PM 92.3 °F 98.6 °F 70.3 °F 49% 30.08 in 10.0 mi WSW 6.9 mph - N/A   Clear
4:15 PM 92.3 °F 97.0 °F 68.5 °F 46% 30.08 in 10.0 mi SW 5.8 mph - N/A   Clear
5:15 PM 91.6 °F 97.2 °F 70.2 °F 49% 30.06 in 10.0 mi SSW 8.1 mph - N/A   Clear
5:35 PM 91.8 °F 97.5 °F 70.3 °F 49% 30.06 in 10.0 mi South 6.9 mph - N/A   Clear
5:55 PM 91.4 °F 97.3 °F 70.2 °F 50% 30.06 in 10.0 mi SSW 6.9 mph - N/A   Clear
6:15 PM 91.4 °F 96.8 °F 69.6 °F 49% 30.05 in 10.0 mi SSW 5.8 mph - N/A   Clear
6:35 PM 90.7 °F 96.4 °F 70.2 °F 51% 30.05 in 10.0 mi SSW 9.2 mph - N/A   Clear
6:55 PM 90.1 °F 95.3 °F 69.8 °F 51% 30.04 in 10.0 mi South 4.6 mph - N/A   Clear
7:15 PM 89.2 °F 94.5 °F 69.8 °F 53% 30.04 in 10.0 mi South 6.9 mph - N/A   Clear
7:35 PM 88.2 °F 93.3 °F 70.0 °F 55% 30.04 in 10.0 mi South 5.8 mph - N/A   Clear
7:55 PM 87.4 °F 92.3 °F 69.8 °F 56% 30.04 in 10.0 mi South 5.8 mph - N/A   Clear
8:15 PM 86.2 °F 90.7 °F 70.0 °F 58% 30.05 in 10.0 mi South 4.6 mph - N/A   Clear
8:35 PM 84.7 °F 89.4 °F 70.3 °F 62% 30.04 in 10.0 mi South 3.5 mph - N/A   Clear
8:55 PM 84.4 °F 88.7 °F 70.2 °F 62% 30.05 in 10.0 mi South 4.6 mph - N/A   Clear
9:15 PM 84.0 °F 88.4 °F 70.2 °F 63% 30.05 in 10.0 mi South 3.5 mph - N/A   Clear
9:35 PM 83.3 °F 87.9 °F 70.7 °F 66% 30.05 in 10.0 mi Calm Calm - N/A   Clear
9:55 PM 82.4 °F 87.0 °F 71.2 °F 69% 30.05 in 10.0 mi SSE 4.6 mph - N/A   Clear
10:15 PM 82.8 °F 87.7 °F 71.8 °F 69% 30.05 in 10.0 mi South 5.8 mph - N/A   Clear
10:35 PM 82.9 °F 87.7 °F 71.6 °F 68% 30.04 in 10.0 mi South 5.8 mph - N/A   Clear
10:55 PM 82.8 °F 87.4 °F 71.2 °F 68% 30.03 in 10.0 mi South 5.8 mph - N/A   Clear
11:15 PM 82.4 °F 86.7 °F 71.1 °F 68% 30.03 in 10.0 mi South 3.5 mph - N/A   Clear
11:35 PM 81.7 °F 85.8 °F 70.9 °F 70% 30.03 in 10.0 mi South 4.6 mph - N/A   Clear
11:55 PM 81.7 °F 85.6 °F 70.7 °F 69% 30.03 in 10.0 mi South 4.6 mph - N/A   Clear